Regional Weather Roundup
Issued by NWS Goodland, KS

Home | Current Version | Previous Version | Graphics & Text | Print | Product List | Glossary On
Versions: 1 2 3 4 5 6 7 8 9 10 11 12 13 14 15 16 17 18 19 20 21 22 23 24 25 26 27 28 29 30 31 32 33 34 35 36 37 38 39 40 41 42 43 44 45 46 47 48 49 50
000
ASUS43 KGLD 260308
RWRGLD

GOODLAND FORECAST AREA HOURLY WEATHER ROUNDUP
NATIONAL WEATHER SERVICE GOODLAND KS
800 PM MST THU DEC 25 2014

...OFFICIAL OBSERVATIONS...

CITY           SKY/WX    TMP DP  RH WIND       PRES   REMARKS
GOODLAND KS    CLOUDY    30  26  85 N15       29.73R WCI  19
HILL CITY KS   CLEAR     33  25  72 N21G30    29.68R
IMPERIAL NEB   CLOUDY    29  23  78 NE20G29   29.76R WCI  16
MCCOOK NEB     MOCLDY    30  25  81 N18G28    29.71R WCI  18
AKRON CO       LGT SNOW  24  23  96 N20       29.75R FOG     WCI  10
BURLINGTON CO  CLOUDY    28  24  85 N16       29.72R WCI  16
LIMON CO       FRZ RAIN  26  24  92 N15       29.71R WCI  14
$$

...UNOFFICIAL OBSERVATIONS...

CITY           SKY/WX    TMP DP  RH WIND       PRES   REMARKS
COLBY KS       CLOUDY    30  30 100 NW16      29.73R WCI  19
GOVE KS          N/A     33  32  96 MISG        N/A
NORTON KS      CLEAR     28  25  86 N14       29.69R WCI  17
SHARON SPRINGS   N/A     29  26  87 N14         N/A  WCI  18
TRIBUNE KS     PTCLDY    32  30  93 N16       29.70R
KIT CARSON CO    N/A     30  25  83 MISG        N/A
YUMA CO          N/A     27  24  88 NE17G25     N/A  WCI  14
$$


USA.gov is the U.S. government's official web portal to all federal, state and local government web resources and services.